Change the Weather History Date:

Saturday, November 2, 2013

  Actual Average Record
Temperature  
Mean Temperature 43 °F -  
Max Temperature 53 °F 50 °F 78 °F (2005)
Min Temperature 33 °F 33 °F 10 °F (1996)
Degree Days  
Heating Degree Days 22    
Moisture  
Dew Point 35 °F    
Average Humidity 76    
Maximum Humidity 100    
Minimum Humidity 47    
Precipitation  
Precipitation 0.00 in - - ()
Sea Level Pressure  
Sea Level Pressure 30.04 in    
Wind  
Wind Speed 12 mph (WNW)    
Max Wind Speed 17 mph    
Max Gust Speed 21 mph    
Visibility 10 miles    
Events      
Averages and records for this station are not official NWS values.
T = Trace of Precipitation, MM = Missing Value Source: NWS Daily Summary

Daily Weather History Graph

Daily Weather History Graph

Search for Another Location

Airport or City:

Trip Planner

Search our weather history database for the weather conditions in past years. The results will help you decide how hot, cold, wet, or windy it might be!

Date:

Astronomy

Nov. 02, 2013 Rise Set
Actual Time 7:56 AM CDT 6:12 PM CDT
Civil Twilight 7:26 AM CDT 6:41 PM CDT
Nautical Twilight 6:53 AM CDT 7:14 PM CDT
Astronomical Twilight 6:20 AM CDT 7:47 PM CDT
Moon 6:53 AM CDT (11/2) 5:44 PM CDT (11/2)
Length of Visible Light 11h 14m
Length of Day
10h 15m
Waning Crescent, 1% of the Moon is Illuminated
Nov 2
Waning Crescent
Nov 3
New
Nov 9
First Quarter
Nov 17
Full
Nov 25
Last Quarter

Hourly Weather History & Observations

Time (CDT) Temp. Windchill Dew Point Humidity Pressure Visibility Wind Dir Wind Speed Gust Speed Precip Events Conditions
12:15 AM 42.8 °F 35.1 °F 39.2 °F 87% 29.91 in 10.0 mi NW 16.1 mph - N/A   Overcast
12:35 AM 42.8 °F 36.2 °F 39.2 °F 87% 29.91 in 10.0 mi NW 12.7 mph 19.6 mph N/A   Overcast
12:55 AM 42.8 °F 36.2 °F 39.2 °F 87% 29.92 in 10.0 mi NW 12.7 mph - N/A   Overcast
1:15 AM 42.8 °F 34.8 °F 39.2 °F 87% 29.93 in 10.0 mi NW 17.3 mph - N/A   Overcast
1:35 AM 42.8 °F 35.8 °F 39.2 °F 87% 29.93 in 10.0 mi NW 13.8 mph 20.7 mph N/A   Overcast
1:55 AM 42.8 °F 36.2 °F 39.2 °F 87% 29.94 in 10.0 mi NW 12.7 mph 18.4 mph N/A   Overcast
2:15 AM 42.8 °F 35.8 °F 39.2 °F 87% 29.95 in 10.0 mi NW 13.8 mph - N/A   Overcast
2:35 AM 42.8 °F 35.8 °F 39.2 °F 87% 29.95 in 10.0 mi NW 13.8 mph - N/A   Overcast
2:55 AM 42.8 °F 35.8 °F 39.2 °F 87% 29.95 in 10.0 mi NNW 13.8 mph - N/A   Overcast
3:15 AM 42.8 °F 36.6 °F 39.2 °F 87% 29.96 in 10.0 mi NW 11.5 mph 20.7 mph N/A   Overcast
3:35 AM 42.8 °F 35.8 °F 39.2 °F 87% 29.97 in 10.0 mi NW 13.8 mph - N/A   Overcast
3:55 AM 41.0 °F 33.5 °F 39.2 °F 93% 29.97 in 10.0 mi NW 13.8 mph - N/A   Overcast
4:15 AM 41.0 °F 33.9 °F 39.2 °F 93% 29.98 in 10.0 mi NW 12.7 mph - N/A   Overcast
4:35 AM 41.0 °F 34.3 °F 37.4 °F 87% 29.99 in 10.0 mi NW 11.5 mph - N/A   Overcast
4:55 AM 41.0 °F 33.9 °F 37.4 °F 87% 30.00 in 10.0 mi NW 12.7 mph - N/A   Overcast
5:15 AM 41.0 °F 33.5 °F 37.4 °F 87% 30.00 in 10.0 mi NW 13.8 mph - N/A   Overcast
5:35 AM 39.2 °F 31.6 °F 37.4 °F 93% 30.01 in 10.0 mi NW 12.7 mph - N/A   Overcast
5:55 AM 39.2 °F 32.0 °F 37.4 °F 93% 30.02 in 10.0 mi NW 11.5 mph 17.3 mph N/A   Overcast
6:15 AM 39.2 °F 32.0 °F 35.6 °F 87% 30.03 in 10.0 mi NW 11.5 mph - N/A   Scattered Clouds
6:35 AM 37.4 °F 29.8 °F 35.6 °F 93% 30.04 in 10.0 mi NW 11.5 mph - N/A   Clear
6:55 AM 35.6 °F 28.0 °F 33.8 °F 93% 30.04 in 10.0 mi NW 10.4 mph - N/A   Clear
7:15 AM 35.6 °F - 33.8 °F 93% 30.05 in 10.0 mi North - - N/A   Clear
7:35 AM 33.8 °F 25.3 °F 33.8 °F 100% 30.06 in 10.0 mi WNW 11.5 mph - N/A   Clear
7:55 AM 33.8 °F 25.3 °F 33.8 °F 100% 30.06 in 7.0 mi WNW 11.5 mph - N/A   Clear
8:15 AM 33.8 °F 25.8 °F 32.0 °F 93% 30.07 in 6.0 mi WNW 10.4 mph - N/A   Clear
8:35 AM 33.8 °F 25.8 °F 33.8 °F 100% 30.08 in 5.0 mi WNW 10.4 mph - N/A   Clear
8:55 AM 33.8 °F 25.8 °F 33.8 °F 100% 30.08 in 6.0 mi WNW 10.4 mph - N/A   Clear
9:15 AM 35.6 °F 28.6 °F 33.8 °F 93% 30.09 in 7.0 mi West 9.2 mph - N/A   Clear
9:35 AM 35.6 °F 27.1 °F 35.6 °F 100% 30.10 in 8.0 mi West 12.7 mph - N/A   Clear
9:55 AM 37.4 °F 29.3 °F 35.6 °F 93% 30.10 in 9.0 mi West 12.7 mph - N/A   Clear
10:15 AM 37.4 °F 29.3 °F 35.6 °F 93% 30.10 in 10.0 mi WNW 12.7 mph - N/A   Clear
10:35 AM 39.2 °F 31.6 °F 35.6 °F 87% 30.10 in 10.0 mi WNW 12.7 mph - N/A   Clear
10:55 AM 41.0 °F 33.9 °F 35.6 °F 81% 30.10 in 10.0 mi WNW 12.7 mph - N/A   Clear
12:35 PM 48.2 °F - 33.8 °F 58% 30.11 in 10.0 mi WNW 11.5 mph - N/A   Clear
12:55 PM 48.2 °F - 33.8 °F 58% 30.11 in 10.0 mi NW 13.8 mph - N/A   Clear
1:15 PM 50.0 °F - 33.8 °F 54% 30.11 in 10.0 mi WNW 12.7 mph 19.6 mph N/A   Clear
1:35 PM 50.0 °F - 33.8 °F 54% 30.10 in 10.0 mi NW 12.7 mph - N/A   Clear
1:55 PM 50.0 °F - 33.8 °F 54% 30.10 in 10.0 mi NW 12.7 mph 18.4 mph N/A   Clear
2:15 PM 51.8 °F - 33.8 °F 50% 30.09 in 10.0 mi WNW 13.8 mph 19.6 mph N/A   Clear
2:35 PM 51.8 °F - 33.8 °F 50% 30.09 in 10.0 mi NW 12.7 mph - N/A   Clear
2:55 PM 51.8 °F - 33.8 °F 50% 30.08 in 10.0 mi WNW 10.4 mph 18.4 mph N/A   Clear
3:15 PM 51.8 °F - 33.8 °F 50% 30.08 in 10.0 mi WNW 11.5 mph - N/A   Clear
3:35 PM 53.6 °F - 33.8 °F 47% 30.08 in 10.0 mi West 13.8 mph - N/A   Clear
3:55 PM 51.8 °F - 33.8 °F 50% 30.07 in 10.0 mi WNW 10.4 mph - N/A   Clear
4:15 PM 51.8 °F - 33.8 °F 50% 30.07 in 10.0 mi WNW 11.5 mph 20.7 mph N/A   Clear
4:35 PM 53.6 °F - 33.8 °F 47% 30.07 in 10.0 mi NW 12.7 mph 19.6 mph N/A   Clear
4:55 PM 53.6 °F - 33.8 °F 47% 30.07 in 10.0 mi West 6.9 mph 13.8 mph N/A   Clear
5:15 PM 51.8 °F - 32.0 °F 47% 30.07 in 10.0 mi West 8.1 mph - N/A   Clear
5:35 PM 51.8 °F - 32.0 °F 47% 30.07 in 10.0 mi WNW 5.8 mph - N/A   Clear
5:55 PM 50.0 °F - 32.0 °F 50% 30.07 in - West 4.6 mph - N/A   Clear
6:15 PM 48.2 °F - 32.0 °F 54% 30.06 in 10.0 mi West 3.5 mph - N/A   Clear
6:35 PM 48.2 °F - 32.0 °F 54% 30.06 in 10.0 mi SW 3.5 mph - N/A   Clear
6:55 PM 46.4 °F - 32.0 °F 57% 30.06 in 10.0 mi Calm Calm - N/A   Clear
7:15 PM 42.8 °F - 32.0 °F 66% 30.06 in 10.0 mi Calm Calm - N/A   Clear
7:35 PM 42.8 °F - 30.2 °F 61% 30.06 in 10.0 mi Calm Calm - N/A   Clear
7:55 PM 41.0 °F 37.1 °F 32.0 °F 70% 30.06 in 10.0 mi South 5.8 mph - N/A   Clear
8:15 PM 41.0 °F 36.4 °F 32.0 °F 70% 30.07 in 10.0 mi South 6.9 mph - N/A   Clear
8:35 PM 39.2 °F 33.6 °F 30.2 °F 70% 30.06 in 10.0 mi South 8.1 mph - N/A   Clear
8:55 PM 41.0 °F 35.8 °F 32.0 °F 70% 30.06 in 10.0 mi South 8.1 mph - N/A   Clear
9:15 PM 37.4 °F 32.1 °F 30.2 °F 75% 30.06 in 10.0 mi South 6.9 mph - N/A   Clear
9:35 PM 39.2 °F 33.6 °F 32.0 °F 75% 30.05 in 10.0 mi South 8.1 mph - N/A   Clear
9:55 PM 39.2 °F 33.0 °F 32.0 °F 75% 30.05 in 10.0 mi South 9.2 mph - N/A   Clear
10:15 PM 39.2 °F 33.0 °F 32.0 °F 75% 30.06 in 10.0 mi South 9.2 mph - N/A   Clear
10:35 PM 39.2 °F 33.0 °F 32.0 °F 75% 30.05 in 10.0 mi South 9.2 mph - N/A   Clear
10:55 PM 37.4 °F 30.3 °F 32.0 °F 81% 30.05 in 10.0 mi South 10.4 mph - N/A   Clear
11:15 PM 37.4 °F 30.3 °F 32.0 °F 81% 30.05 in 10.0 mi South 10.4 mph - N/A   Clear
11:35 PM 37.4 °F 30.3 °F 32.0 °F 81% 30.05 in 10.0 mi South 10.4 mph - N/A   Clear
11:55 PM 35.6 °F 28.6 °F 32.0 °F 87% 30.05 in 10.0 mi South 9.2 mph - N/A   Clear